Devils Lake, ND

3:41 AM CDT on June 27, 2017 (GMT -0500)
Devils Lake Municipal

Weather History for KDVL - November, 2011

Change the Weather History Date:

Wednesday, November 2, 2011

  Actual Average Record
Temperature  
Mean Temperature 37 °F -  
Max Temperature 46 °F 41 °F 67 °F (1983)
Min Temperature 28 °F 25 °F -4 °F (1984)
Degree Days  
Heating Degree Days 28    
Moisture  
Dew Point 25 °F    
Average Humidity 65    
Maximum Humidity 93    
Minimum Humidity 34    
Precipitation  
Precipitation 0.00 in - - ()
Sea Level Pressure  
Sea Level Pressure 30.25 in    
Wind  
Wind Speed 14 mph (WNW)    
Max Wind Speed 20 mph    
Max Gust Speed 28 mph    
Visibility 10 miles    
Events      
Averages and records for this station are not official NWS values.
T = Trace of Precipitation, MM = Missing Value Source: NWS Daily Summary

Daily Weather History Graph

Daily Weather History Graph

Search for Another Location

Airport or City:

Trip Planner

Search our weather history database for the weather conditions in past years. The results will help you decide how hot, cold, wet, or windy it might be!

Date:

Astronomy

Nov. 02, 2011 Rise Set
Actual Time 8:22 AM CDT 6:15 PM CDT
Civil Twilight 7:49 AM CDT 6:48 PM CDT
Nautical Twilight 7:12 AM CDT 7:25 PM CDT
Astronomical Twilight 6:36 AM CDT 8:01 PM CDT
Moon 2:41 PM CDT (11/2) No Moon Set
Length of Visible Light 10h 58m
Length of Day
9h 53m
Waxing Crescent, 50% of the Moon is Illuminated
Nov 2
Waxing Crescent
Nov 10
Full
Nov 18
Last Quarter
Nov 25
New
Dec 2
First Quarter

Hourly Weather History & Observations

Time (CDT) Temp. Windchill Dew Point Humidity Pressure Visibility Wind Dir Wind Speed Gust Speed Precip Events Conditions
12:15 AM 35.6 °F 25.5 °F 26.6 °F 70% 30.18 in 10.0 mi NW 17.3 mph - N/A   Clear
12:35 AM 35.6 °F 25.9 °F 26.6 °F 70% 30.19 in 10.0 mi WNW 16.1 mph - N/A   Clear
12:55 AM 35.6 °F 25.9 °F 26.6 °F 70% 30.19 in 10.0 mi WNW 16.1 mph - N/A   Clear
1:15 AM 33.8 °F 24.8 °F 26.6 °F 75% 30.20 in 10.0 mi WNW 12.7 mph - N/A   Clear
1:35 AM 33.8 °F 23.9 °F 26.6 °F 75% 30.20 in 10.0 mi WNW 15.0 mph - N/A   Clear
1:55 AM 33.8 °F 23.5 °F 26.6 °F 75% 30.20 in 10.0 mi WNW 16.1 mph - N/A   Clear
2:15 AM 33.8 °F 24.3 °F 26.6 °F 75% 30.21 in 10.0 mi WNW 13.8 mph - N/A   Clear
2:35 AM 32.0 °F 21.6 °F 26.6 °F 80% 30.21 in 10.0 mi WNW 15.0 mph - N/A   Clear
2:55 AM 32.0 °F 22.5 °F 26.6 °F 80% 30.21 in 10.0 mi WNW 12.7 mph - N/A   Clear
3:15 AM 30.2 °F 19.8 °F 26.6 °F 86% 30.21 in 10.0 mi WNW 13.8 mph - N/A   Clear
3:35 AM 30.2 °F 19.8 °F 26.6 °F 86% 30.22 in 10.0 mi WNW 13.8 mph - N/A   Clear
3:55 AM 30.2 °F 19.8 °F 26.6 °F 86% 30.21 in 10.0 mi WNW 13.8 mph - N/A   Clear
4:55 AM 30.2 °F 20.8 °F 26.6 °F 86% 30.23 in 10.0 mi WNW 11.5 mph - N/A   Clear
5:55 AM 28.4 °F 18.0 °F 26.6 °F 93% 30.24 in 10.0 mi NW 12.7 mph - N/A   Clear
6:15 AM 28.4 °F 18.5 °F 24.8 °F 86% 30.25 in 10.0 mi NW 11.5 mph - N/A   Clear
6:35 AM 28.4 °F 18.0 °F 24.8 °F 86% 30.25 in 10.0 mi NW 12.7 mph - N/A   Clear
6:55 AM 28.4 °F 18.0 °F 24.8 °F 86% 30.25 in 10.0 mi WNW 12.7 mph - N/A   Clear
7:15 AM 28.4 °F 19.7 °F 24.8 °F 86% 30.26 in 10.0 mi WNW 9.2 mph - N/A   Clear
7:35 AM 28.4 °F 18.0 °F 24.8 °F 86% 30.27 in 10.0 mi WNW 12.7 mph - N/A   Clear
7:55 AM 28.4 °F 19.1 °F 24.8 °F 86% 30.27 in 10.0 mi WNW 10.4 mph - N/A   Clear
8:15 AM 28.4 °F 19.1 °F 24.8 °F 86% 30.28 in 10.0 mi WNW 10.4 mph - N/A   Clear
8:35 AM 28.4 °F 18.5 °F 24.8 °F 86% 30.29 in 10.0 mi WNW 11.5 mph - N/A   Clear
8:55 AM 28.4 °F 19.1 °F 24.8 °F 86% 30.30 in 10.0 mi WNW 10.4 mph - N/A   Clear
9:15 AM 28.4 °F 19.1 °F 24.8 °F 86% 30.30 in 10.0 mi WNW 10.4 mph - N/A   Clear
9:35 AM 30.2 °F 20.2 °F 26.6 °F 86% 30.30 in 10.0 mi WNW 12.7 mph - N/A   Clear
9:55 AM 30.2 °F 20.8 °F 24.8 °F 80% 30.30 in 10.0 mi WNW 11.5 mph - N/A   Clear
10:15 AM 32.0 °F 22.5 °F 26.6 °F 80% 30.30 in 10.0 mi West 12.7 mph - N/A   Clear
10:35 AM 33.8 °F 24.8 °F 26.6 °F 75% 30.30 in 10.0 mi West 12.7 mph - N/A   Clear
10:55 AM 33.8 °F 24.3 °F 24.8 °F 70% 30.30 in 10.0 mi West 13.8 mph - N/A   Clear
11:15 AM 35.6 °F 26.6 °F 24.8 °F 65% 30.30 in 10.0 mi WNW 13.8 mph - N/A   Clear
11:35 AM 37.4 °F 28.5 °F 26.6 °F 65% 30.30 in 10.0 mi WNW 15.0 mph - N/A   Clear
11:55 AM 37.4 °F 28.2 °F 23.0 °F 56% 30.30 in 10.0 mi WNW 16.1 mph - N/A   Clear
12:15 PM 37.4 °F 28.9 °F 26.6 °F 65% 30.30 in 10.0 mi West 13.8 mph - N/A   Clear
12:35 PM 39.2 °F 30.2 °F 24.8 °F 56% 30.31 in 10.0 mi WNW 17.3 mph - N/A   Clear
12:55 PM 39.2 °F 31.2 °F 24.8 °F 56% 30.30 in 10.0 mi WNW 13.8 mph - N/A   Clear
1:15 PM 41.0 °F 33.5 °F 23.0 °F 49% 30.29 in 10.0 mi WNW 13.8 mph - N/A   Clear
1:35 PM 42.8 °F 34.5 °F 21.2 °F 42% 30.29 in 10.0 mi WNW 18.4 mph - N/A   Clear
1:55 PM 44.6 °F 37.2 °F 23.0 °F 43% 30.27 in 10.0 mi WNW 17.3 mph - N/A   Clear
2:15 PM 44.6 °F 36.6 °F 21.2 °F 39% 30.26 in 10.0 mi WNW 19.6 mph - N/A   Clear
2:35 PM 44.6 °F 36.6 °F 21.2 °F 39% 30.26 in 10.0 mi WNW 19.6 mph 24.2 mph N/A   Clear
2:55 PM 44.6 °F 36.9 °F 19.4 °F 37% 30.25 in 10.0 mi WNW 18.4 mph 27.6 mph N/A   Clear
3:15 PM 44.6 °F 37.2 °F 19.4 °F 37% 30.25 in 10.0 mi WNW 17.3 mph - N/A   Clear
3:35 PM 46.4 °F 39.0 °F 19.4 °F 34% 30.25 in 10.0 mi WNW 19.6 mph - N/A   Clear
3:55 PM 46.4 °F 39.5 °F 21.2 °F 37% 30.24 in 10.0 mi WNW 17.3 mph - N/A   Clear
4:15 PM 46.4 °F 39.5 °F 21.2 °F 37% 30.24 in 10.0 mi WNW 17.3 mph - N/A   Clear
4:35 PM 44.6 °F 37.4 °F 19.4 °F 37% 30.24 in 10.0 mi WNW 16.1 mph - N/A   Clear
4:55 PM 44.6 °F 37.4 °F 21.2 °F 39% 30.24 in 10.0 mi WNW 16.1 mph - N/A   Clear
5:15 PM 44.6 °F 38.4 °F 21.2 °F 39% 30.24 in 10.0 mi WNW 12.7 mph - N/A   Clear
5:35 PM 44.6 °F 38.8 °F 21.2 °F 39% 30.24 in 10.0 mi West 11.5 mph - N/A   Clear
5:55 PM 42.8 °F 38.0 °F 23.0 °F 46% 30.24 in 10.0 mi West 8.1 mph - N/A   Clear
6:15 PM 39.2 °F 34.2 °F 24.8 °F 56% 30.24 in 10.0 mi West 6.9 mph - N/A   Clear
6:35 PM 39.2 °F 33.0 °F 26.6 °F 61% 30.24 in 10.0 mi West 9.2 mph - N/A   Clear
6:55 PM 37.4 °F 31.4 °F 26.6 °F 65% 30.23 in 9.0 mi WSW 8.1 mph - N/A   Clear
7:15 PM 39.2 °F 34.2 °F 26.6 °F 61% 30.23 in 10.0 mi WSW 6.9 mph - N/A   Clear
7:35 PM 39.2 °F 33.0 °F 24.8 °F 56% 30.23 in 10.0 mi WSW 9.2 mph - N/A   Clear
7:55 PM 37.4 °F 30.3 °F 26.6 °F 65% 30.23 in 10.0 mi WSW 10.4 mph - N/A   Clear
8:15 PM 39.2 °F 33.0 °F 26.6 °F 61% 30.23 in 10.0 mi WSW 9.2 mph - N/A   Clear
8:35 PM 39.2 °F 32.5 °F 26.6 °F 61% 30.22 in 10.0 mi WSW 10.4 mph - N/A   Clear
8:55 PM 39.2 °F 32.5 °F 26.6 °F 61% 30.22 in 10.0 mi WSW 10.4 mph - N/A   Clear
9:15 PM 39.2 °F 32.5 °F 28.4 °F 65% 30.22 in 10.0 mi SW 10.4 mph - N/A   Clear
9:35 PM 39.2 °F 31.6 °F 24.8 °F 56% 30.21 in 10.0 mi WSW 12.7 mph - N/A   Clear
9:55 PM 39.2 °F 32.0 °F 24.8 °F 56% 30.21 in 10.0 mi SW 11.5 mph - N/A   Clear
10:15 PM 39.2 °F 31.2 °F 24.8 °F 56% 30.20 in 10.0 mi SW 13.8 mph - N/A   Clear
10:35 PM 37.4 °F 28.9 °F 24.8 °F 60% 30.20 in 10.0 mi SW 13.8 mph - N/A   Clear
10:55 PM 37.4 °F 29.8 °F 23.0 °F 56% 30.19 in 10.0 mi SW 11.5 mph - N/A   Clear
11:15 PM 37.4 °F 28.9 °F 24.8 °F 60% 30.19 in 10.0 mi WSW 13.8 mph - N/A   Clear
11:35 PM 37.4 °F 27.8 °F 24.8 °F 60% 30.19 in 10.0 mi WSW 17.3 mph - N/A   Clear
11:55 PM 39.2 °F 31.2 °F 23.0 °F 52% 30.18 in 10.0 mi SW 13.8 mph 20.7 mph N/A   Clear